N78623 KPHL-KBWI

Flight info

Callsign N78623
Flight time 0h 45m
Altitude 6000
Route DCT
Aircraft C172/L-V/N

Departure

Time 2026-05-05 18:44
Airport Philadelphia International Airport (KPHL)

Arrival

Time 2026-05-05 19:30
Airport Baltimore/Washington International Thurgood Marshall Airport (KBWI)
Time Latitude Longitude Altitude Speed Heading
2026-05-05 18:27 39.88515 -75.23247 10 ft 0 kts 69°
2026-05-05 18:39 39.88514 -75.23240 10 ft 5 kts 137°
2026-05-05 18:40 39.88490 -75.23262 9 ft 4 kts 222°
2026-05-05 18:40 39.88458 -75.23288 9 ft 11 kts 194°
2026-05-05 18:40 39.88380 -75.23270 10 ft 20 kts 159°
2026-05-05 18:40 39.88242 -75.23189 13 ft 23 kts 157°
2026-05-05 18:41 39.88089 -75.23114 17 ft 24 kts 158°
2026-05-05 18:41 39.87928 -75.23037 16 ft 27 kts 158°
2026-05-05 18:41 39.87750 -75.22942 15 ft 27 kts 140°
2026-05-05 18:41 39.87670 -75.22713 12 ft 29 kts 111°
2026-05-05 18:42 39.87601 -75.22450 11 ft 32 kts 104°
2026-05-05 18:42 39.87586 -75.22386 11 ft 0 kts 114°
2026-05-05 18:43 39.87581 -75.22375 11 ft 12 kts 122°
2026-05-05 18:43 39.87478 -75.22378 15 ft 15 kts 262°
2026-05-05 18:43 39.87436 -75.22668 14 ft 55 kts 257°
2026-05-05 18:43 39.87353 -75.23233 149 ft 67 kts 255°
2026-05-05 18:44 39.87186 -75.23833 263 ft 70 kts 249°
2026-05-05 18:44 39.87046 -75.24413 478 ft 67 kts 256°
2026-05-05 18:44 39.86779 -75.24917 714 ft 68 kts 225°
2026-05-05 18:44 39.86472 -75.25327 943 ft 66 kts 253°
2026-05-05 18:45 39.86257 -75.25853 1173 ft 66 kts 236°
2026-05-05 18:45 39.86049 -75.26385 1420 ft 67 kts 233°
2026-05-05 18:45 39.85826 -75.26924 1667 ft 67 kts 231°
2026-05-05 18:45 39.85588 -75.27464 1821 ft 74 kts 233°
2026-05-05 18:46 39.85318 -75.28066 1939 ft 80 kts 234°
2026-05-05 18:46 39.85025 -75.28704 2048 ft 84 kts 233°
2026-05-05 18:46 39.84715 -75.29368 2152 ft 86 kts 234°
2026-05-05 18:46 39.84396 -75.30043 2251 ft 90 kts 232°
2026-05-05 18:47 39.84056 -75.30764 2429 ft 89 kts 234°
2026-05-05 18:47 39.83754 -75.31411 2686 ft 77 kts 234°
2026-05-05 18:47 39.83542 -75.31919 2989 ft 54 kts 237°
2026-05-05 18:47 39.83365 -75.32410 3060 ft 61 kts 233°
2026-05-05 18:48 39.83180 -75.32834 3291 ft 52 kts 232°
2026-05-05 18:48 39.83040 -75.33255 3454 ft 49 kts 236°
2026-05-05 18:48 39.82865 -75.33684 3526 ft 58 kts 230°
2026-05-05 18:48 39.82634 -75.34150 3721 ft 62 kts 234°
2026-05-05 18:49 39.82425 -75.34608 3948 ft 54 kts 223°
2026-05-05 18:49 39.82161 -75.34971 4062 ft 59 kts 226°
2026-05-05 18:49 39.81894 -75.35336 4259 ft 51 kts 216°
2026-05-05 18:49 39.81668 -75.35749 4364 ft 63 kts 232°
2026-05-05 18:50 39.81407 -75.36188 4578 ft 64 kts 232°
2026-05-05 18:50 39.81156 -75.36758 4661 ft 78 kts 234°
2026-05-05 18:50 39.80871 -75.37382 4794 ft 80 kts 236°
2026-05-05 18:50 39.80591 -75.37983 4939 ft 77 kts 235°
2026-05-05 18:51 39.80312 -75.38574 5084 ft 77 kts 235°
2026-05-05 18:51 39.80041 -75.39147 5227 ft 71 kts 235°
2026-05-05 18:51 39.79792 -75.39669 5365 ft 67 kts 235°
2026-05-05 18:51 39.79547 -75.40183 5514 ft 66 kts 236°
2026-05-05 18:52 39.79311 -75.40679 5656 ft 64 kts 236°
2026-05-05 18:52 39.79076 -75.41168 5808 ft 63 kts 237°
2026-05-05 18:52 39.78845 -75.41651 5959 ft 62 kts 238°
2026-05-05 18:52 39.78606 -75.42152 5999 ft 70 kts 238°
2026-05-05 18:53 39.78336 -75.42716 6015 ft 77 kts 237°
2026-05-05 18:53 39.78043 -75.43329 6015 ft 82 kts 237°
2026-05-05 18:53 39.77736 -75.43967 6017 ft 84 kts 237°
2026-05-05 18:53 39.77506 -75.44448 6013 ft 85 kts 237°
2026-05-05 18:54 39.77487 -75.44489 6013 ft 85 kts 237°
2026-05-05 18:54 39.77175 -75.45138 6011 ft 84 kts 237°
2026-05-05 18:54 39.76864 -75.45785 6009 ft 84 kts 237°
2026-05-05 18:54 39.76553 -75.46432 6009 ft 84 kts 237°
2026-05-05 18:55 39.76242 -75.47079 6010 ft 84 kts 236°
2026-05-05 18:55 39.76033 -75.47516 6010 ft 84 kts 236°
2026-05-05 18:55 39.75723 -75.48162 6011 ft 84 kts 236°
2026-05-05 18:55 39.75411 -75.48810 6014 ft 85 kts 236°
2026-05-05 18:56 39.75096 -75.49466 6016 ft 86 kts 237°
2026-05-05 18:56 39.74785 -75.50115 6018 ft 85 kts 237°
2026-05-05 18:56 39.74469 -75.50770 5999 ft 86 kts 237°
2026-05-05 18:56 39.74151 -75.51431 5995 ft 86 kts 237°
2026-05-05 18:57 39.73832 -75.52095 5995 ft 87 kts 237°
2026-05-05 18:57 39.73512 -75.52760 5994 ft 87 kts 237°
2026-05-05 18:57 39.73192 -75.53424 5994 ft 87 kts 237°
2026-05-05 18:57 39.72874 -75.54085 5995 ft 86 kts 237°
2026-05-05 18:58 39.72555 -75.54748 5994 ft 86 kts 237°
2026-05-05 18:58 39.72236 -75.55411 5994 ft 87 kts 237°
2026-05-05 18:58 39.71918 -75.56070 5996 ft 86 kts 237°
2026-05-05 18:58 39.71603 -75.56723 5995 ft 85 kts 237°
2026-05-05 18:59 39.71292 -75.57369 5993 ft 84 kts 238°
2026-05-05 18:59 39.70981 -75.58012 5990 ft 84 kts 237°
2026-05-05 18:59 39.70671 -75.58656 5990 ft 84 kts 237°
2026-05-05 18:59 39.70507 -75.58997 5991 ft 83 kts 237°
2026-05-05 19:00 39.70271 -75.59485 5986 ft 83 kts 237°
2026-05-05 19:00 39.69948 -75.60150 6023 ft 96 kts 238°
2026-05-05 19:00 39.69585 -75.60903 6079 ft 102 kts 239°
2026-05-05 19:00 39.69194 -75.61716 6095 ft 110 kts 239°
2026-05-05 19:01 39.68777 -75.62582 6095 ft 115 kts 239°
2026-05-05 19:01 39.68367 -75.63464 6087 ft 115 kts 231°
2026-05-05 19:01 39.67875 -75.64442 6022 ft 133 kts 227°
2026-05-05 19:01 39.67439 -75.65382 6203 ft 112 kts 243°
2026-05-05 19:02 39.67003 -75.66278 6104 ft 115 kts 238°
2026-05-05 19:02 39.66566 -75.67137 6077 ft 119 kts 232°
2026-05-05 19:02 39.66099 -75.68089 6073 ft 131 kts 237°
2026-05-05 19:02 39.65603 -75.69137 6106 ft 137 kts 245°
2026-05-05 19:03 39.65108 -75.70149 6076 ft 134 kts 242°
2026-05-05 19:03 39.64652 -75.71106 6101 ft 119 kts 250°
2026-05-05 19:03 39.64233 -75.71970 6105 ft 106 kts 246°
2026-05-05 19:03 39.63853 -75.72759 6072 ft 106 kts 245°
2026-05-05 19:04 39.63429 -75.73627 5933 ft 127 kts 245°
2026-05-05 19:04 39.63041 -75.74464 6131 ft 115 kts 239°
2026-05-05 19:04 39.62538 -75.75463 6078 ft 132 kts 245°
2026-05-05 19:04 39.62097 -75.76369 6180 ft 117 kts 246°
2026-05-05 19:05 39.61628 -75.77357 6134 ft 121 kts 242°
2026-05-05 19:05 39.61170 -75.78299 6141 ft 115 kts 247°
2026-05-05 19:05 39.60766 -75.79130 6107 ft 103 kts 247°
2026-05-05 19:05 39.60395 -75.79899 6103 ft 99 kts 250°
2026-05-05 19:06 39.60030 -75.80650 6098 ft 98 kts 248°
2026-05-05 19:06 39.59629 -75.81469 5987 ft 102 kts 242°
2026-05-05 19:06 39.59304 -75.82139 6083 ft 85 kts 239°
2026-05-05 19:06 39.58986 -75.82780 6021 ft 82 kts 238°
2026-05-05 19:07 39.58688 -75.83379 6014 ft 77 kts 238°
2026-05-05 19:07 39.58405 -75.83949 6086 ft 75 kts 238°
2026-05-05 19:07 39.58077 -75.84602 6005 ft 94 kts 240°
2026-05-05 19:07 39.57718 -75.85322 6005 ft 107 kts 238°
2026-05-05 19:08 39.57318 -75.86133 6102 ft 110 kts 238°
2026-05-05 19:08 39.56893 -75.86991 6142 ft 114 kts 242°
2026-05-05 19:08 39.56457 -75.87873 6107 ft 127 kts 240°
2026-05-05 19:08 39.56003 -75.88792 6141 ft 121 kts 243°
2026-05-05 19:09 39.55545 -75.89715 6101 ft 121 kts 245°
2026-05-05 19:09 39.55091 -75.90620 6078 ft 124 kts 242°
2026-05-05 19:09 39.54632 -75.91546 6102 ft 123 kts 239°
2026-05-05 19:09 39.54148 -75.92522 6098 ft 131 kts 236°
2026-05-05 19:10 39.53644 -75.93520 6104 ft 134 kts 236°
2026-05-05 19:10 39.53155 -75.94509 6102 ft 127 kts 244°
2026-05-05 19:10 39.52675 -75.95465 6111 ft 123 kts 243°
2026-05-05 19:10 39.52214 -75.96403 6107 ft 120 kts 242°
2026-05-05 19:11 39.51768 -75.97291 6084 ft 119 kts 241°
2026-05-05 19:11 39.51317 -75.98195 6122 ft 117 kts 243°
2026-05-05 19:11 39.50862 -75.99108 6061 ft 127 kts 238°
2026-05-05 19:11 39.50382 -76.00065 6122 ft 124 kts 246°
2026-05-05 19:12 39.49901 -76.01030 6097 ft 129 kts 242°
2026-05-05 19:12 39.49427 -76.01981 6088 ft 127 kts 245°
2026-05-05 19:12 39.48970 -76.02900 6106 ft 118 kts 243°
2026-05-05 19:12 39.48539 -76.03770 6103 ft 114 kts 244°
2026-05-05 19:13 39.48114 -76.04630 6086 ft 117 kts 244°
2026-05-05 19:13 39.47668 -76.05540 6121 ft 116 kts 244°
2026-05-05 19:13 39.47212 -76.06444 6079 ft 125 kts 240°
2026-05-05 19:13 39.46737 -76.07403 6097 ft 130 kts 237°
2026-05-05 19:14 39.46241 -76.08392 6107 ft 130 kts 242°
2026-05-05 19:14 39.45759 -76.09360 6103 ft 128 kts 241°
2026-05-05 19:14 39.45288 -76.10287 6110 ft 121 kts 244°
2026-05-05 19:14 39.44823 -76.11224 6083 ft 129 kts 245°
2026-05-05 19:15 39.44353 -76.12163 6060 ft 130 kts 235°
2026-05-05 19:15 39.43884 -76.13094 6099 ft 124 kts 239°
2026-05-05 19:15 39.43400 -76.14060 6095 ft 130 kts 237°
2026-05-05 19:15 39.42899 -76.15060 6103 ft 133 kts 244°
2026-05-05 19:16 39.42409 -76.16037 6093 ft 129 kts 245°
2026-05-05 19:16 39.41939 -76.16985 6081 ft 130 kts 239°
2026-05-05 19:16 39.41462 -76.17927 6109 ft 122 kts 240°
2026-05-05 19:16 39.41003 -76.18837 6099 ft 121 kts 241°
2026-05-05 19:17 39.40543 -76.19761 6184 ft 112 kts 238°
2026-05-05 19:17 39.40048 -76.20736 6067 ft 136 kts 238°
2026-05-05 19:17 39.39532 -76.21768 6108 ft 140 kts 235°
2026-05-05 19:17 39.39026 -76.22750 6187 ft 131 kts 240°
2026-05-05 19:18 39.38489 -76.23836 6110 ft 148 kts 237°
2026-05-05 19:18 39.37892 -76.24920 6127 ft 150 kts 229°
2026-05-05 19:18 39.37375 -76.26115 6111 ft 153 kts 242°
2026-05-05 19:18 39.36797 -76.27275 6113 ft 154 kts 235°
2026-05-05 19:19 39.36196 -76.28433 6107 ft 156 kts 236°
2026-05-05 19:19 39.35581 -76.29596 6094 ft 156 kts 234°
2026-05-05 19:19 39.34994 -76.30773 6105 ft 155 kts 237°
2026-05-05 19:19 39.34404 -76.31940 6111 ft 155 kts 236°
2026-05-05 19:20 39.33804 -76.33103 6105 ft 156 kts 237°
2026-05-05 19:20 39.33224 -76.34289 6103 ft 156 kts 237°
2026-05-05 19:20 39.32633 -76.35469 6102 ft 156 kts 236°
2026-05-05 19:20 39.32039 -76.36646 6099 ft 156 kts 236°
2026-05-05 19:21 39.31443 -76.37825 6102 ft 157 kts 237°
2026-05-05 19:21 39.30847 -76.39004 6098 ft 157 kts 237°
2026-05-05 19:21 39.30259 -76.40170 6100 ft 157 kts 237°
2026-05-05 19:21 39.29659 -76.41356 6104 ft 158 kts 237°
2026-05-05 19:22 39.29059 -76.42544 6104 ft 159 kts 236°
2026-05-05 19:22 39.28456 -76.43732 6100 ft 157 kts 236°
2026-05-05 19:22 39.27684 -76.44654 6097 ft 153 kts 208°
2026-05-05 19:22 39.26668 -76.45030 6096 ft 153 kts 180°
2026-05-05 19:23 39.25585 -76.45123 6012 ft 159 kts 181°
2026-05-05 19:23 39.24482 -76.45246 5934 ft 163 kts 181°
2026-05-05 19:23 39.23324 -76.45364 5745 ft 169 kts 181°
2026-05-05 19:23 39.22137 -76.45485 5550 ft 172 kts 182°
2026-05-05 19:24 39.20943 -76.45611 5350 ft 170 kts 182°
2026-05-05 19:24 39.19774 -76.45735 5146 ft 167 kts 181°
2026-05-05 19:24 39.18619 -76.45856 4945 ft 166 kts 183°
2026-05-05 19:24 39.17534 -76.46318 4742 ft 165 kts 217°
2026-05-05 19:25 39.16740 -76.47317 4557 ft 155 kts 248°
2026-05-05 19:25 39.16366 -76.48559 4353 ft 143 kts 274°
2026-05-05 19:25 39.16370 -76.49788 4079 ft 134 kts 277°
2026-05-05 19:25 39.16441 -76.50926 3927 ft 123 kts 265°
2026-05-05 19:26 39.16511 -76.52004 3765 ft 119 kts 266°
2026-05-05 19:26 39.16569 -76.53055 3600 ft 117 kts 265°
2026-05-05 19:26 39.16632 -76.54099 3414 ft 116 kts 264°
2026-05-05 19:26 39.16688 -76.55142 3203 ft 117 kts 264°
2026-05-05 19:27 39.16749 -76.56180 3016 ft 116 kts 265°
2026-05-05 19:27 39.16811 -76.57212 2809 ft 111 kts 264°
2026-05-05 19:27 39.16846 -76.57864 2671 ft 102 kts 262°
2026-05-05 19:27 39.16924 -76.58767 2183 ft 103 kts 259°
2026-05-05 19:28 39.16929 -76.59677 1749 ft 104 kts 265°
2026-05-05 19:28 39.17021 -76.60604 1290 ft 103 kts 264°
2026-05-05 19:28 39.17052 -76.61509 860 ft 95 kts 256°
2026-05-05 19:28 39.17069 -76.62366 607 ft 101 kts 269°
2026-05-05 19:29 39.17140 -76.63197 527 ft 88 kts 268°
2026-05-05 19:29 39.17187 -76.63988 410 ft 90 kts 268°
2026-05-05 19:29 39.17241 -76.64749 288 ft 80 kts 268°
2026-05-05 19:29 39.17272 -76.65438 203 ft 75 kts 269°
2026-05-05 19:30 39.17314 -76.66056 146 ft 58 kts 273°
2026-05-05 19:30 39.17331 -76.66481 149 ft 38 kts 274°
2026-05-05 19:30 39.17418 -76.66584 151 ft 17 kts 20°
2026-05-05 19:30 39.17482 -76.66469 147 ft 17 kts 32°
2026-05-05 19:31 39.17574 -76.66394 148 ft 14 kts 33°
2026-05-05 19:31 39.17652 -76.66326 150 ft 15 kts 33°
2026-05-05 19:31 39.17749 -76.66245 150 ft 18 kts 35°
2026-05-05 19:31 39.17862 -76.66150 150 ft 21 kts 34°
2026-05-05 19:32 39.17991 -76.66041 149 ft 23 kts 33°
2026-05-05 19:32 39.18121 -76.65982 154 ft 18 kts 339°
2026-05-05 19:32 39.18232 -76.66043 155 ft 17 kts 337°
2026-05-05 19:32 39.18348 -76.66097 155 ft 17 kts 17°
2026-05-05 19:33 39.18427 -76.65988 155 ft 16 kts 52°
2026-05-05 19:33 39.18506 -76.65931 150 ft 15 kts 52°
2026-05-05 19:33 39.18525 -76.65788 143 ft 20 kts 89°
2026-05-05 19:33 39.18572 -76.65657 139 ft 5 kts 116°
2026-05-05 19:34 39.18519 -76.65608 137 ft 14 kts 144°
2026-05-05 19:34 39.18424 -76.65539 136 ft 13 kts 166°
2026-05-05 19:34 39.18418 -76.65482 135 ft 9 kts 54°
2026-05-05 19:35 39.18434 -76.65452 134 ft 0 kts 57°